• In Belgien
  • Länderverzeichnis
  • Für 7 Tage
  • Wassertemperatur
  • Satellitenkarten
  • Wetterkarte
  • Widgets
  • user-avatar
    Anmelden

    Stündliche Wetter Elbasan

    Heute, 16 Juli, Montag

    Zeit Temperatur Niederschläge Wind Luftdruck Luftfeuchtigkeit
    00:00 +22°C° 0 mm 1 m/S 734 mmHg 58%
    01:00 +22°C° 0 mm 1 m/S 734 mmHg 57%
    02:00 +22°C° 0 mm 1 m/S 734 mmHg 57%
    03:00 +22°C° 0 mm 1 m/S 734 mmHg 58%
    04:00 +22°C° 0 mm 1 m/S 734 mmHg 58%
    05:00 +23°C° 0 mm 1 m/S 734 mmHg 56%
    06:00 +25°C° 0 mm 1 m/S 734 mmHg 54%
    07:00 +27°C° 0 mm 1 m/S 734 mmHg 53%
    08:00 +28°C° 0 mm 1 m/S 734 mmHg 49%
    09:00 +30°C° 0 mm 2 m/S 734 mmHg 46%
    10:00 +31°C° 0 mm 2 m/S 734 mmHg 42%
    11:00 +33°C° 0 mm 3 m/S 734 mmHg 42%
    12:00 +33°C° 0 mm 4 m/S 734 mmHg 41%
    13:00 +34°C° 0 mm 5 m/S 734 mmHg 40%
    14:00 +33°C° 0 mm 5 m/S 733 mmHg 42%
    15:00 +33°C° 0 mm 4 m/S 733 mmHg 44%
    16:00 +32°C° 0 mm 4 m/S 733 mmHg 45%
    17:00 +29°C° 0 mm 3 m/S 733 mmHg 52%
    18:00 +27°C° 0 mm 2 m/S 733 mmHg 59%
    19:00 +25°C° 0 mm 1 m/S 733 mmHg 66%
    20:00 +25°C° 0 mm 1 m/S 733 mmHg 67%
    21:00 +24°C° 0 mm 1 m/S 733 mmHg 68%
    22:00 +23°C° 0 mm 1 m/S 733 mmHg 69%
    23:00 +23°C° 0 mm 1 m/S 733 mmHg 68%

    Morgen, 17 Juli, Dienstag

    Zeit Temperatur Niederschläge Wind Luftdruck Luftfeuchtigkeit
    00:00 +23°C° 0 mm 1 m/S 733 mmHg 66%
    01:00 +22°C° 0 mm 1 m/S 732 mmHg 65%
    02:00 +21°C° 0,1 mm 2 m/S 732 mmHg 65%
    03:00 +21°C° 0,1 mm 2 m/S 732 mmHg 64%
    04:00 +21°C° 0,1 mm 2 m/S 731 mmHg 64%
    05:00 +23°C° 0,4 mm 2 m/S 731 mmHg 62%
    06:00 +25°C° 0,4 mm 2 m/S 731 mmHg 60%
    07:00 +27°C° 0,4 mm 2 m/S 731 mmHg 58%
    08:00 +28°C° 0 mm 2 m/S 731 mmHg 53%
    09:00 +30°C° 0 mm 2 m/S 731 mmHg 47%
    10:00 +32°C° 0 mm 2 m/S 730 mmHg 42%
    11:00 +32°C° 0 mm 2 m/S 730 mmHg 42%
    12:00 +33°C° 0 mm 3 m/S 730 mmHg 42%
    13:00 +34°C° 0 mm 4 m/S 729 mmHg 42%
    14:00 +33°C° 0,3 mm 4 m/S 729 mmHg 47%
    15:00 +32°C° 0,3 mm 4 m/S 729 mmHg 52%
    16:00 +30°C° 0,3 mm 4 m/S 729 mmHg 56%
    17:00 +28°C° 0,3 mm 4 m/S 729 mmHg 63%
    18:00 +26°C° 0,3 mm 3 m/S 729 mmHg 70%
    19:00 +24°C° 0,3 mm 2 m/S 730 mmHg 77%
    20:00 +24°C° 0 mm 2 m/S 730 mmHg 81%
    21:00 +23°C° 0 mm 2 m/S 730 mmHg 84%
    22:00 +22°C° 0 mm 1 m/S 731 mmHg 87%
    23:00 +21°C° 0,1 mm 1 m/S 731 mmHg 88%

    übermorgen, 18 Juli, Mittwoch

    Zeit Temperatur Niederschläge Wind Luftdruck Luftfeuchtigkeit
    00:00 +21°C° 0,1 mm 1 m/S 731 mmHg 89%
    01:00 +21°C° 0,1 mm 1 m/S 731 mmHg 90%
    02:00 +21°C° 0 mm 1 m/S 731 mmHg 90%
    03:00 +20°C° 0 mm 1 m/S 731 mmHg 91%
    04:00 +20°C° 0 mm 1 m/S 731 mmHg 92%
    05:00 +22°C° 0 mm 1 m/S 731 mmHg 85%
    06:00 +23°C° 0 mm 1 m/S 731 mmHg 79%
    07:00 +25°C° 0 mm 1 m/S 731 mmHg 73%
    08:00 +26°C° 0 mm 1 m/S 731 mmHg 66%
    09:00 +28°C° 0 mm 2 m/S 731 mmHg 59%
    10:00 +29°C° 0 mm 2 m/S 731 mmHg 52%
    11:00 +30°C° 0,2 mm 2 m/S 731 mmHg 51%
    12:00 +30°C° 0,2 mm 3 m/S 731 mmHg 49%
    13:00 +32°C° 0,2 mm 4 m/S 731 mmHg 48%
    14:00 +30°C° 0,1 mm 4 m/S 731 mmHg 49%
    15:00 +30°C° 0,1 mm 4 m/S 731 mmHg 51%
    16:00 +30°C° 0,1 mm 4 m/S 731 mmHg 52%
    17:00 +28°C° 0,1 mm 3 m/S 731 mmHg 60%
    18:00 +26°C° 0,1 mm 3 m/S 731 mmHg 67%
    19:00 +24°C° 0,1 mm 2 m/S 731 mmHg 75%
    20:00 +23°C° 0 mm 2 m/S 732 mmHg 77%
    21:00 +22°C° 0 mm 1 m/S 732 mmHg 80%
    22:00 +22°C° 0 mm 1 m/S 732 mmHg 82%
    23:00 +21°C° 0 mm 1 m/S 732 mmHg 82%

    19 Juli, Donnerstag

    Zeit Temperatur Niederschläge Wind Luftdruck Luftfeuchtigkeit
    00:00 +21°C° 0 mm 1 m/S 732 mmHg 81%
    01:00 +21°C° 0 mm 1 m/S 732 mmHg 81%
    02:00 +20°C° 0 mm 1 m/S 732 mmHg 81%
    03:00 +20°C° 0 mm 1 m/S 732 mmHg 80%
    04:00 +20°C° 0 mm 1 m/S 731 mmHg 80%
    05:00 +22°C° 0 mm 1 m/S 732 mmHg 74%
    06:00 +23°C° 0 mm 1 m/S 732 mmHg 68%
    07:00 +25°C° 0 mm 1 m/S 732 mmHg 62%
    08:00 +26°C° 0 mm 2 m/S 732 mmHg 56%
    09:00 +28°C° 0 mm 2 m/S 732 mmHg 50%
    10:00 +29°C° 0 mm 3 m/S 732 mmHg 45%
    11:00 +29°C° 0 mm 3 m/S 732 mmHg 44%
    12:00 +30°C° 0 mm 4 m/S 732 mmHg 44%
    13:00 +30°C° 0 mm 4 m/S 732 mmHg 43%
    14:00 +30°C° 0 mm 4 m/S 732 mmHg 46%
    15:00 +30°C° 0 mm 4 m/S 732 mmHg 48%
    16:00 +29°C° 0 mm 4 m/S 732 mmHg 50%
    17:00 +28°C° 0 mm 3 m/S 732 mmHg 57%
    18:00 +26°C° 0 mm 2 m/S 732 mmHg 64%
    19:00 +24°C° 0 mm 1 m/S 732 mmHg 72%
    20:00 +23°C° 0 mm 1 m/S 733 mmHg 74%
    21:00 +23°C° 0 mm 1 m/S 733 mmHg 77%
    22:00 +22°C° 0 mm 1 m/S 733 mmHg 79%
    23:00 +22°C° 0 mm 1 m/S 733 mmHg 79%

    20 Juli, Freitag

    Zeit Temperatur Niederschläge Wind Luftdruck Luftfeuchtigkeit
    00:00 +21°C° 0 mm 1 m/S 733 mmHg 79%
    01:00 +21°C° 0 mm 1 m/S 733 mmHg 79%
    02:00 +21°C° 0 mm 1 m/S 733 mmHg 79%
    03:00 +21°C° 0 mm 1 m/S 733 mmHg 80%
    04:00 +21°C° 0 mm 1 m/S 733 mmHg 80%
    05:00 +22°C° 0 mm 1 m/S 733 mmHg 75%
    06:00 +24°C° 0 mm 1 m/S 733 mmHg 70%
    07:00 +26°C° 0 mm 1 m/S 733 mmHg 65%
    08:00 +27°C° 0 mm 1 m/S 733 mmHg 60%
    09:00 +29°C° 0 mm 1 m/S 733 mmHg 54%
    10:00 +31°C° 0 mm 2 m/S 733 mmHg 49%
    11:00 +31°C° 0,1 mm 2 m/S 733 mmHg 48%
    12:00 +33°C° 0,1 mm 3 m/S 733 mmHg 47%
    13:00 +33°C° 0,1 mm 3 m/S 733 mmHg 46%
    14:00 +33°C° 0,2 mm 3 m/S 733 mmHg 48%
    15:00 +31°C° 0,2 mm 3 m/S 733 mmHg 49%
    16:00 +31°C° 0,2 mm 3 m/S 733 mmHg 51%
    17:00 +29°C° 0 mm 2 m/S 733 mmHg 58%
    18:00 +27°C° 0 mm 2 m/S 733 mmHg 65%
    19:00 +25°C° 0 mm 1 m/S 733 mmHg 72%
    20:00 +25°C° 0 mm 1 m/S 733 mmHg 74%
    21:00 +24°C° 0 mm 1 m/S 734 mmHg 76%
    22:00 +23°C° 0 mm 1 m/S 734 mmHg 79%
    23:00 +23°C° 0 mm 1 m/S 734 mmHg 79%

    21 Juli, Samstag

    Zeit Temperatur Niederschläge Wind Luftdruck Luftfeuchtigkeit
    00:00 +23°C° 0 mm 1 m/S 734 mmHg 79%
    01:00 +22°C° 0 mm 1 m/S 734 mmHg 80%
    02:00 +22°C° 0 mm 1 m/S 734 mmHg 80%
    03:00 +22°C° 0 mm 1 m/S 734 mmHg 80%
    04:00 +22°C° 0 mm 1 m/S 734 mmHg 80%
    05:00 +24°C° 0 mm 1 m/S 734 mmHg 74%
    06:00 +24°C° 0 mm 0 m/S 734 mmHg 68%
    07:00 +25°C° 0 mm 0 m/S 734 mmHg 62%
    08:00 +29°C° 0 mm 1 m/S 735 mmHg 57%
    09:00 +31°C° 0 mm 1 m/S 735 mmHg 51%
    10:00 +32°C° 0 mm 1 m/S 735 mmHg 45%
    11:00 +34°C° 0 mm 2 m/S 734 mmHg 42%
    12:00 +35°C° 0 mm 2 m/S 734 mmHg 39%
    13:00 +35°C° 0 mm 3 m/S 734 mmHg 36%
    14:00 +35°C° 0 mm 3 m/S 734 mmHg 36%
    15:00 +35°C° 0 mm 3 m/S 734 mmHg 36%
    16:00 +35°C° 0 mm 3 m/S 734 mmHg 36%
    17:00 +32°C° 0 mm 2 m/S 734 mmHg 42%
    18:00 +29°C° 0 mm 1 m/S 734 mmHg 48%
    19:00 +25°C° 0 mm 0 m/S 734 mmHg 54%
    20:00 +26°C° 0 mm 1 m/S 734 mmHg 54%
    21:00 +25°C° 0 mm 1 m/S 734 mmHg 54%
    22:00 +24°C° 0 mm 1 m/S 734 mmHg 54%
    23:00 +24°C° 0 mm 1 m/S 734 mmHg 53%
    Mehr zeigen